Location: Wawayanda State Park
(41.1833°N, 74.4333°W)
Time: 16:58:19
(UTC-04:00)

Daily predictions for brighter satellites

Satellite Brightness Start Highest point End
(mag) Time Altitude Azimuth Time Altitude Azimuth Time Altitude Azimuth
Meteor 2-2 Rocket 4.4 20:06:04 10° S 20:11:51 68° E 20:17:48 10° NNE
Resurs 01 Rocket 2.4 20:13:16 10° SE 20:17:17 35° ENE 20:21:20 10° N
Cosmos 1825 3.7 20:15:26 10° NNE 20:18:17 20° ENE 20:21:07 10° ESE
SL-8 R/B 3.7 20:14:16 10° SW 20:19:01 72° SSE 20:23:49 10° ENE
Cosmos 220 Rocket 4.1 20:15:59 10° NNW 20:20:17 60° ENE 20:24:29 10° SSE
Cosmos 962 Rocket 4.5 20:22:35 10° S 20:28:38 67° E 20:34:46 10° NNE
Cosmos 1666 Rocket 3.8 20:24:31 10° N 20:29:00 77° W 20:33:26 10° S
BREEZE-M DEB (TANK) 2.8 20:24:26 10° WNW 20:29:26 57° NNE 20:31:34 12° ESE
Cosmos 1151 Rocket 3.4 20:25:53 10° SSE 20:29:52 40° E 20:33:52 10° NNE
Cosmos 2341 Rocket 4.0 20:27:05 10° S 20:33:24 71° E 20:39:41 10° NNE
Sich 1 3.6 20:29:51 10° NNW 20:34:04 59° W 20:38:15 10° S
Meteor 2-21 Rocket 4.5 20:28:47 10° S 20:34:56 88° E 20:41:09 10° N
Cosmos 1933 Rocket 4.0 20:30:49 10° N 20:34:59 41° ENE 20:39:05 10° SSE
SL-16 R/B 3.2 20:31:30 10° SSE 20:35:55 24° E 20:40:18 10° NE
H-2A R/B 3.8 20:34:02 10° E 20:36:50 15° ENE 20:39:37 10° NNE
Envisat 3.4 20:31:49 10° S 20:36:51 68° WSW 20:41:57 10° NNW
Aureole 2 4.0 20:35:16 10° SSW 20:38:16 88° WNW 20:41:13 10° NNE
Lacrosse 5 4.2 20:39:07 10° NNW 20:41:53 14° N 20:44:37 10° NE
Cosmos 2366 rocket 4.4 20:38:02 10° SSE 20:43:47 41° E 20:49:37 10° NNE
Resurs 1-3 3.6 20:41:18 10° SSE 20:45:40 74° ENE 20:50:03 10° N
Cosmos 1408 2.8 20:44:33 10° N 20:48:09 51° E 20:51:15 13° SSE
SL-8 Rocket 4.0 20:45:25 10° S 20:51:38 64° E 20:57:50 10° NNE
Cosmos 2056 Rocket 3.9 20:46:40 10° S 20:51:44 42° ESE 20:56:47 10° NNE
USA 186 2.4 20:54:29 10° S 20:56:35 36° W 20:58:46 10° NNW
Meteor 2-3 Rocket 4.1 20:51:58 10° NNW 20:57:34 68° W 21:03:09 10° S
Cosmos 1633 Rocket 4.3 20:55:03 10° NNW 20:59:10 42° W 21:03:16 10° SSW
ERS-2 3.5 20:57:33 10° S 21:00:58 37° W 21:04:26 10° NNW
Cosmos 1980 3.9 20:55:20 10° SSW 21:01:01 79° WNW 21:06:44 10° NNE
Centaur D-1A AC-31 3.5 20:50:03 10° SW 21:02:04 22° S 21:05:15 16° SSE
YAOGAN 6 3.6 21:02:03 10° S 21:05:31 46° W 21:09:04 10° NNW
ATLAS CENTAUR R/B 3.3 21:03:22 10° WSW 21:06:36 29° NW 21:10:00 10° NNE
ATLAS 2AS CENTAUR R/B 3.3 20:59:22 10° NW 21:07:05 61° WSW 21:13:55 11° SSE
Cosmos 2098 Rocket 3.0 21:02:54 10° S 21:07:24 52° E 21:11:00 10° NNE
Cosmos 1624 Rocket 3.9 21:03:09 10° S 21:08:16 62° ESE 21:13:24 10° NNE
Cosmos 1869 3.2 21:04:53 10° S 21:08:51 69° E 21:12:53 10° NNE
Cosmos 2297 4.2 21:03:27 10° NNW 21:08:53 44° ENE 21:12:01 23° ESE
Cosmos 1190 Rocket 4.3 21:05:19 10° N 21:10:28 51° ENE 21:13:21 25° SE
Cosmos 1455 4.1 21:07:17 10° SW 21:10:46 33° WNW 21:14:19 10° NNW
Cosmos 2369 Rocket 4.3 21:08:50 10° NNE 21:10:50 12° NE 21:12:48 10° ENE
Cosmos 1515 Rocket 4.0 21:07:34 10° SSW 21:12:00 64° W 21:16:26 10° N
CZ-4C R/B 3.5 21:16:07 18° E 21:16:07 18° E 21:18:41 10° ENE
Cosmos 1939 Rocket 4.0 21:11:09 10° S 21:14:48 41° W 21:18:33 10° NNW
Cosmos 405 3.4 21:12:11 10° N 21:15:34 43° ENE 21:16:19 36° ESE
Cosmos 2333 Rocket 3.8 21:11:24 10° SW 21:16:39 38° WNW 21:21:54 10° N
Cosmos 1441 Rocket 3.7 21:16:44 34° ESE 21:17:09 35° E 21:20:35 10° NNE
Spot 2 Rocket 3.7 21:14:33 11° S 21:19:28 71° WSW 21:24:34 10° NNW
Cosmos 864 Rocket 4.4 21:16:00 10° S 21:22:06 79° E 21:28:15 10° N
Cosmos 2219 Rocket 4.3 21:18:14 10° WSW 21:23:07 29° NW 21:28:02 10° N
Cosmos 2228 Rocket 4.3 21:23:12 10° SSW 21:27:22 42° WNW 21:31:35 10° N
Cosmos 2237 Rocket 3.1 21:22:26 10° SW 21:27:54 51° WNW 21:33:24 10° NNE
ATLAS 5 CENTAUR R/B 4.2 21:28:12 10° N 21:32:11 19° NE 21:35:41 12° ENE
NOSS 3-4 (A) 3.8 21:30:43 10° NNW 21:37:49 79° NE 21:41:47 31° SE
NOSS 3-4 (C) 3.8 21:30:49 10° NNW 21:37:55 78° NE 21:41:52 31° SE
Cosmos 2278 Rocket 3.2 21:32:46 10° NW 21:38:06 42° WSW 21:42:33 14° S
BREEZE-M DEB (TANK) 2.6 21:39:30 10° WNW 21:41:43 49° NW 21:41:43 49° NW
USA 267 4.1 21:40:51 10° ENE 21:54:29 - SSW 21:44:35 27° E
Cosmos 614 Rocket 4.2 21:43:02 10° N 21:48:11 55° ENE 21:49:21 45° ESE
Cosmos 405 Rocket 2.6 21:48:49 65° S 21:49:20 85° E 21:53:17 10° N
ERS-1 Rocket 3.0 21:49:58 47° SE 21:51:14 65° ENE 21:56:13 10° N
GEOS 3 Rocket 4.1 21:47:56 10° NE 21:52:18 40° E 21:52:18 40° E
Cosmos 1420 Rocket 4.2 21:52:59 47° ESE 21:53:21 48° ESE 21:58:26 10° NNE
Cosmos 1825 4.3 21:50:41 10° NW 21:53:48 25° W 21:56:25 13° SW
Resurs 01 Rocket 3.9 21:50:28 10° SW 21:53:51 21° W 21:57:14 10° NW
Terra 3.3 21:56:55 22° ENE 21:56:55 22° ENE 22:00:23 10° NNE
Cosmos 1437 Rocket 4.2 21:54:30 10° NNE 21:56:56 26° NE 21:56:56 26° NE
Cosmos 407 Rocket 3.8 21:54:02 10° NNW 21:59:06 61° WSW 22:00:57 37° SSW
Cosmos 1862 3.4 21:56:44 10° NNW 22:00:46 71° W 22:01:11 64° SW
Helios 1B rocket 3.9 21:57:27 10° NNE 21:59:33 25° NE 21:59:33 25° NE
Cosmos 1727 Rocket 4.3 21:57:03 10° NNW 22:03:07 62° W 22:06:52 24° SSW
Cosmos 1821 Rocket 4.0 22:01:59 44° SSE 22:03:50 61° E 22:10:03 10° NNE
SPOT 1/Viking Rocket 3.7 22:07:19 52° E 22:07:49 54° ENE 22:12:54 10° N
RESURS DK-1 4.5 22:05:10 10° NNE 22:07:28 16° NE 22:07:28 16° NE
DMSP B5D2-2 4.0 22:04:27 10° NNE 22:09:40 60° E 22:09:49 59° ESE
MetOp-B 4.3 22:08:59 42° S 22:10:45 68° WSW 22:16:06 10° NNW
ARGOS 3.6 22:10:30 36° SSW 22:12:31 57° W 22:17:49 10° NNW
H-2A R/B 2.1 22:14:36 51° SSW 22:15:43 67° WSW 22:20:41 10° NNW
Cosmos 1943 Rocket 3.5 22:12:14 10° N 22:16:41 24° NE 22:17:12 24° ENE
ATLAS 2A CENTAUR R/B 4.2 22:04:11 10° WSW 22:19:25 36° S 22:20:59 34° SSE
SL-16 R/B 3.1 22:14:12 10° SW 22:19:39 48° WNW 22:25:08 10° NNE
Cosmos 676 Rocket 4.2 22:16:34 10° NNW 22:21:45 63° WSW 22:22:34 54° SSW
Cosmos 2123 Rocket 4.1 22:16:15 10° N 22:22:24 53° ENE 22:22:54 51° E
SL-08 RB Rocket 4.2 22:22:04 49° SW 22:22:34 51° W 22:26:56 10° NNW
Cosmos 1023 Rocket 4.5 22:19:28 10° NNW 22:24:36 69° WSW 22:25:04 65° SW
SPOT 5 2.7 22:26:17 75° N 22:26:17 75° N 22:30:22 10° NNW
Lacrosse 5 3.0 22:21:40 10° NNW 22:26:16 33° NNE 22:26:57 32° NE
Cosmos 1707 Rocket 4.3 22:25:48 43° WSW 22:26:30 48° W 22:30:42 10° N
Helios 1A 3.3 22:27:42 63° NW 22:27:42 63° NW 22:31:24 10° NNW
Cosmos 2344 3.6 22:23:39 10° SW 22:31:15 85° NW 22:39:39 10° NE
Cosmos 1452 Rocket 3.9 22:32:26 37° SW 22:34:22 61° WNW 22:39:35 10° NNE
Cosmos 1535 Rocket 4.4 22:34:42 61° S 22:35:56 89° ESE 22:42:22 10° N
SL-19 R/B 4.1 22:36:44 81° SE 22:36:59 85° ENE 22:42:37 10° NNW
Cosmos 1241 Rocket 4.3 22:35:20 10° NNW 22:41:41 89° WSW 22:42:14 76° SSE
Cosmos 1733 Rocket 3.9 22:40:44 10° N 22:43:58 48° NNW 22:43:58 48° NNW
Meteor 2-17 Rocket 4.3 22:46:15 79° ESE 22:46:18 79° E 22:52:27 10° N
Cosmos 1603 3.6 22:46:57 84° NNW 22:46:57 84° NNW 22:52:27 10° NNE
Cosmos 1140 Rocket 4.3 22:42:54 10° NNW 22:47:45 42° WSW 22:47:57 42° WSW
Cosmos 1943 4.1 22:50:32 36° NE 22:50:32 36° NE 22:54:01 10° NNE
Cosmos 1850 Rocket 4.2 22:47:38 10° NNW 22:52:09 68° NNW 22:52:09 68° NNW
Cosmos 1605 Rocket 3.9 22:54:29 74° ENE 22:54:29 74° ENE 23:00:41 10° N
BREEZE-M DEB (TANK) 4.1 22:27:57 10° WNW 22:55:12 90° NE 22:56:49 61° ESE
Cosmos 2369 Rocket 2.4 22:50:20 10° NNW 22:55:29 62° NNE 22:55:29 62° NNE
Cosmos 1741 Rocket 4.4 22:56:33 10° NNW 23:01:08 63° NW 23:01:08 63° NW
CZ-4C R/B 2.7 23:01:07 43° W 23:02:30 56° NW 23:08:22 10° NNE
CZ-2C R/B 4.0 22:59:20 10° NNE 23:02:17 30° NE 23:02:17 30° NE
Meteor 1-14 Rocket 4.4 23:01:00 10° NNW 23:06:00 66° WNW 23:06:00 66° WNW
Nimbus 7 Rocket 4.5 23:11:07 10° NNE 23:16:29 72° NNW 23:16:29 72° NNW
ATLAS 5 CENTAUR R/B 2.6 23:11:47 10° NNW 23:17:14 69° NNE 23:17:14 69° NNE
USA 267 3.3 23:23:22 10° NE 23:29:53 72° NW 23:31:49 48° WSW
Terra 3.4 23:35:47 31° NW 23:35:47 31° NW 23:38:43 10° NNW
CZ-2C R/B 4.3 23:39:46 35° NW 23:39:46 35° NW 23:42:38 10° NNW
